User: anonymous   Login
Location: Banios
(43.0451°N, 0.2335°E)
Time: 14:01:31
(UTC+00:00)
Language:

USA 305 - Orbit

View from above orbital plane
View from above orbital plane
View from above satellite
View from above satellite

Ground track
Ground track

The orbit data is extracted from the following two-line orbital elements,

1 45873U 20046A   21100.15699196 0.00002600  00000-0  21322-3 0    03
2 45873  53.9748 200.8321 0009390 282.1885  77.8114 14.98761074    01
Epoch (UTC): 10 April 2021 03:46:04
Eccentricity: 0.0009390
inclination: 53.9748°
perigee height: 564 km
apogee height: 577 km
right ascension of ascending node: 200.8321°
argument of perigee: 282.1885°
revolutions per day: 14.98761074
mean anomaly at epoch: 77.8114°
orbit number at epoch: 0

The dashed part of the orbit path shows where the satellite is in the earth's shadow,  

DLR